Temperature
14 14 14 14 14 13 13 13 13 13 13 12 12 12 12 12 12 12 12 12 12 11 11 11 10 10 10 10 9 9 9 9 9 9 9 9 9 9 9 9 9 9 9
13 13 14 14 14 14 13 13 14 13 13 13 13 13 13 12 12 12 12 12 12 11 11 11 11 10 10 10 9 9 9 9 9 8 8 9 9 9 9 9 9 9 9
13 13 14 14 14 14 14 14 14 14 14 14 13 12 12 12 12 12 12 12 12 12 11 11 11 10 10 10 10 9 9 9 9 8 8 9 9 9 9 9 9 9 9
13 13 13 14 14 14 14 14 14 14 14 14 13 13 13 13 14 13 13 13 12 12 11 11 11 10 10 10 10 10 9 9 9 9 8 8 9 9 9 9 9 9 9
13 13 14 14 14 15 14 15 15 15 14 14 14 14 14 14 14 13 13 13 12 12 12 11 11 11 10 10 10 10 9 9 9 9 8 8 8 8 8 9 9 9 9
13 13 14 14 14 14 14 14 14 15 15 14 14 14 14 14 14 14 13 13 13 12 12 12 11 11 11 10 10 10 9 9 9 9 9 8 8 8 8 8 8 8 8
13 13 13 13 14 14 14 14 14 14 15 14 14 15 15 15 15 14 14 14 13 13 13 12 12 11 11 11 10 10 9 9 9 9 9 8 8 8 8 8 8 7 8
12 12 13 13 14 14 14 15 15 15 15 15 15 15 15 15 14 15 14 14 14 14 14 13 12 12 11 11 10 10 9 9 9 9 9 8 8 8 8 7 7 7 7
11 12 12 13 14 14 14 15 15 15 15 15 15 15 15 15 15 15 14 14 14 14 14 13 13 12 11 11 10 10 10 9 9 9 9 8 8 8 8 7 7 6 6
11 11 12 12 13 14 14 15 15 16 16 16 16 15 15 15 15 15 14 14 14 14 13 13 12 12 11 11 10 10 10 9 9 9 9 8 8 8 7 7 7 6 6
10 10 11 12 13 13 14 14 15 15 15 16 16 15 15 15 15 15 14 14 14 14 13 13 12 12 11 11 10 10 10 10 9 9 9 8 8 8 7 7 7 6 6
9 10 10 11 12 13 13 14 14 15 15 16 16 15 15 15 15 15 15 14 14 13 13 13 12 12 11 11 11 10 10 10 9 9 9 8 8 7 7 7 6 6 6
8 9 10 11 11 12 13 13 14 14 15 15 15 15 15 14 15 15 14 14 13 13 12 12 12 11 11 11 11 10 10 10 9 9 8 8 8 7 7 7 6 6 5
8 8 9 10 10 11 12 13 13 14 14 14 14 14 14 15 15 14 14 13 13 12 12 12 12 11 11 11 10 10 10 9 9 9 8 8 8 7 7 7 6 6 5
7 7 8 9 9 10 11 12 13 13 13 14 14 14 14 14 14 13 13 13 12 12 12 11 11 11 11 10 10 10 9 9 9 8 8 8 7 7 7 6 6 5 5
6 6 7 8 9 10 11 12 12 13 13 13 13 13 13 13 13 13 13 12 12 12 11 11 11 10 10 10 10 10 9 9 8 8 8 7 7 7 6 6 5 5 4
5 6 6 7 8 9 10 11 12 12 12 13 13 13 13 12 12 12 12 12 11 11 11 11 10 10 10 10 10 9 9 9 8 8 8 7 7 6 6 5 5 4 3
5 5 6 7 8 9 10 10 11 12 12 12 12 12 12 12 12 12 11 11 11 11 11 10 10 10 10 10 9 9 9 8 8 8 7 7 6 6 5 5 4 4 3
5 5 6 7 7 8 9 10 10 11 11 11 12 12 12 12 12 11 11 11 11 10 10 10 10 10 10 9 9 9 8 8 8 7 7 6 6 5 5 4 4 3 3
5 5 6 6 7 8 9 9 10 10 10 11 11 12 11 11 11 11 11 11 11 11 10 10 10 10 9 9 9 8 8 8 7 7 6 6 5 5 4 4 3 3 2
5 5 6 6 6 7 8 8 9 9 10 10 10 11 11 11 11 11 11 10 10 10 10 9 9 9 9 9 9 8 8 7 7 7 6 5 5 4 4 3 3 2 1
5 5 5 6 6 7 7 8 8 9 9 9 10 10 10 10 10 10 10 10 9 9 9 9 9 9 9 8 8 8 7 7 7 6 6 5 5 4 3 3 2 1 1
5 5 5 5 6 6 7 7 7 8 8 8 9 9 9 9 10 9 9 9 9 9 9 9 8 8 8 8 8 7 7 6 6 6 5 5 4 3 3 2 2 1 0
4 5 5 5 5 6 6 6 7 7 8 8 8 8 9 9 9 9 9 9 9 9 9 8 8 8 8 8 7 7 6 6 6 5 5 4 3 3 2 2 1 0 -0
4 4 4 5 5 5 6 6 6 6 7 7 7 8 8 8 8 8 8 9 9 9 9 9 9 8 8 8 8 7 6 6 5 5 4 4 3 2 2 1 1 -0 -1
4 4 4 4 5 5 5 6 6 6 6 7 7 7 7 8 8 8 8 8 8 8 8 9 8 8 8 8 7 7 6 6 5 4 4 3 3 2 2 1 0 -0 -1
Wind_Speed
14 11 12 13 13 14 16 17 18 18 16 14 13 13 13 11 10 10 13 16 16 16 13 8 8 8 7 7 7 4 4 2 2 2 2 2 1 1 1 1 1 2 2
10 10 12 13 15 17 18 19 19 20 19 16 14 11 9 8 8 8 11 16 16 16 14 10 9 8 7 7 7 5 4 2 3 3 2 2 4 2 1 1 1 2 2
14 12 13 15 15 17 19 19 21 20 21 17 12 9 7 6 8 10 11 13 16 16 14 13 10 10 9 9 8 8 7 4 2 2 3 2 3 3 2 1 1 2 1
12 12 13 14 16 18 18 19 20 20 20 19 17 17 14 13 13 11 11 11 14 15 16 14 13 11 9 9 9 8 6 6 4 2 1 2 3 2 2 3 2 2 2
11 12 13 15 16 16 16 17 18 19 19 20 20 20 16 13 8 8 11 12 12 14 15 15 13 12 10 10 10 8 7 6 5 4 3 2 1 2 2 3 4 3 2
10 11 11 11 12 12 13 15 17 19 19 21 21 21 20 15 13 13 14 13 10 11 14 14 13 12 10 11 10 10 10 7 6 5 4 4 3 3 3 4 4 3 3
8 9 9 10 11 12 13 15 17 19 20 21 22 22 21 19 18 16 15 13 11 11 15 14 13 12 11 11 10 10 9 9 8 7 5 4 4 3 4 3 3 3 2
7 9 9 10 11 12 14 15 17 19 20 21 22 21 20 17 15 15 14 15 13 13 14 15 14 13 12 11 10 9 9 8 8 8 7 4 4 4 4 4 3 2 2
6 7 8 9 11 13 15 17 18 18 19 21 21 20 20 18 16 15 14 13 11 11 13 14 14 13 13 12 11 9 9 9 8 8 7 5 4 4 3 3 3 3 3
7 6 6 8 9 11 13 14 17 18 18 19 19 17 19 19 16 15 16 15 14 13 14 14 14 13 13 12 12 9 9 9 8 7 7 6 4 4 3 3 3 3 4
8 6 6 7 7 8 10 12 14 15 15 17 17 17 17 17 16 15 16 15 14 14 15 15 15 14 14 13 12 11 11 11 9 8 8 8 6 5 4 3 3 3 3
7 6 6 5 5 7 8 11 13 14 15 16 16 17 16 15 16 16 16 15 15 15 15 15 15 14 14 13 13 13 12 12 11 10 9 8 6 6 4 4 4 3 3
9 7 6 5 5 6 7 9 11 13 13 13 14 15 15 16 16 16 15 15 15 14 14 14 15 14 14 14 13 13 12 11 11 10 10 9 8 7 5 5 4 3 3
9 7 6 6 5 5 6 8 9 10 11 12 14 15 16 17 16 15 14 14 15 15 15 15 14 14 13 13 12 12 11 10 9 9 9 9 9 8 8 6 5 4 3
11 9 8 6 5 5 5 6 7 8 10 12 13 14 14 13 13 13 13 13 14 14 14 14 13 12 12 12 13 12 12 11 9 8 7 7 8 9 7 6 6 5 4
12 11 9 7 6 5 4 5 7 8 10 12 12 12 12 13 13 14 13 13 13 13 14 14 14 13 11 16 19 15 12 11 11 9 7 7 7 9 9 9 8 7 5
11 11 9 8 7 6 5 5 7 7 9 10 10 11 13 13 14 14 14 14 14 13 14 14 14 13 14 19 20 18 12 11 10 10 9 7 7 9 7 8 8 6 5
11 10 9 8 7 6 4 4 5 7 9 10 10 11 12 13 13 14 14 14 12 12 13 13 13 12 13 19 20 19 12 10 9 10 10 10 9 8 9 8 7 5 4
9 9 7 7 6 5 3 2 4 6 8 10 11 11 12 13 14 14 14 12 11 11 11 12 13 13 13 19 20 18 10 9 9 8 9 10 9 13 14 10 8 6 4
9 8 6 5 5 4 2 3 4 6 8 9 10 10 12 13 14 14 12 10 11 11 11 11 12 13 13 19 21 19 10 10 9 7 8 11 11 14 14 9 8 7 4
9 7 6 5 5 3 1 2 4 6 6 6 7 9 10 12 12 11 11 12 11 11 10 11 10 11 14 19 22 20 11 11 10 8 7 7 14 14 13 10 7 8 8
9 7 6 6 5 3 1 2 3 3 4 6 7 8 9 9 11 12 11 12 13 12 11 10 9 8 10 14 17 20 16 15 11 9 7 8 15 14 13 9 9 12 9
9 7 5 6 5 3 1 2 2 2 4 7 8 8 9 9 11 13 13 12 12 11 10 10 10 9 7 10 17 19 19 18 10 9 14 15 16 14 10 11 12 10 6
8 7 6 5 5 4 3 3 2 3 5 7 8 8 9 9 10 10 11 11 11 11 11 11 11 10 9 9 10 11 12 15 12 11 14 16 15 11 10 9 7 5 4
8 6 6 6 6 4 4 2 3 4 5 7 8 8 8 9 9 8 8 9 8 11 13 12 12 14 12 13 18 15 12 11 12 13 9 7 7 6 5 5 5 4 4
8 7 7 6 5 4 4 3 3 5 6 7 8 7 7 7 8 8 7 6 8 11 12 13 14 10 13 21 22 21 21 22 22 13 9 8 7 7 7 6 5 3 3
Wind_Direction
226 212 206 200 196 197 196 196 193 188 183 184 184 184 188 187 186 186 184 184 183 180 178 175 168 167 169 169 157 141 136 128 124 89 14 341 324 278 269 258 256 271 275
227 212 203 200 198 199 198 198 197 191 188 190 189 188 180 182 183 183 186 188 185 183 185 177 176 173 168 165 165 151 141 137 145 128 100 338 331 318 284 275 251 264 276
226 216 205 201 199 201 201 201 200 195 193 187 179 169 162 162 179 191 193 192 189 186 186 183 178 176 176 179 178 169 159 161 174 158 149 160 243 298 314 291 275 271 272
226 218 209 204 204 205 202 201 201 198 194 186 184 182 187 193 197 191 190 186 188 188 188 184 181 180 181 180 182 177 167 156 171 177 158 162 164 178 309 315 301 278 263
220 214 211 208 210 207 202 201 200 198 195 191 190 190 196 197 182 173 180 186 189 189 189 186 184 184 185 183 179 175 176 173 169 169 160 153 128 163 187 276 305 316 281
218 217 215 210 212 207 204 200 199 199 195 195 194 194 196 189 178 181 187 190 190 191 191 188 188 187 187 185 183 180 181 183 175 172 167 165 169 187 185 227 263 283 290
223 222 218 212 213 209 205 202 199 201 197 197 199 199 198 193 192 189 190 188 189 194 194 191 190 189 187 183 178 179 184 183 181 182 185 184 187 167 170 189 236 261 284
234 226 220 217 217 214 208 203 201 202 198 199 202 201 198 197 198 193 190 192 195 195 188 189 190 187 183 182 179 180 185 184 188 189 185 186 195 181 176 176 180 249 292
258 244 235 224 219 215 209 205 203 203 199 200 201 201 199 198 198 193 191 192 191 185 182 186 187 185 182 180 178 185 185 183 190 190 188 190 192 183 185 175 172 184 249
281 264 254 238 229 221 212 207 204 204 200 198 199 201 200 200 197 190 192 192 187 180 180 183 184 182 182 180 180 182 183 182 187 184 184 190 186 177 174 176 175 182 196
295 283 273 253 237 224 211 206 205 203 201 198 198 196 198 196 192 193 194 191 185 181 182 183 182 183 183 182 183 185 181 184 184 181 184 190 180 177 178 170 170 182 182
312 303 290 272 245 224 212 206 203 202 202 198 195 195 194 191 191 194 192 187 184 184 182 179 180 183 183 183 184 185 183 185 185 184 182 187 177 179 173 171 178 186 186
330 323 313 300 272 240 220 210 205 201 198 193 191 190 190 189 192 194 190 185 183 180 178 177 181 183 183 183 185 184 183 185 186 182 183 183 174 182 175 170 174 179 168
335 326 316 306 293 264 230 213 208 198 190 186 187 189 191 192 192 189 185 183 181 179 179 180 181 181 180 180 179 178 178 179 179 178 179 177 179 183 176 172 173 161 151
339 334 325 315 306 290 254 217 208 197 185 183 186 191 189 186 181 179 180 179 179 179 177 176 177 176 176 178 175 174 173 171 168 165 167 170 169 169 165 162 165 157 152
333 332 327 322 312 299 273 229 207 195 184 184 188 182 176 176 177 178 176 174 176 174 172 175 176 177 179 174 171 169 170 168 166 161 155 151 150 152 151 151 152 152 151
327 328 320 314 308 298 277 237 207 189 183 182 180 175 173 175 177 174 173 174 175 172 173 175 175 177 177 170 170 167 164 163 163 159 155 150 149 143 137 134 127 125 123
324 322 316 314 314 305 287 241 196 181 179 176 176 175 174 174 172 172 175 174 171 172 173 173 173 171 172 168 166 159 153 151 154 156 157 153 151 150 139 127 117 106 97
310 308 304 303 309 307 290 214 183 177 178 179 179 176 174 172 171 174 175 168 165 167 168 169 167 167 166 163 158 150 148 144 144 146 150 150 151 151 141 134 128 115 95
314 313 315 317 320 311 286 183 177 178 187 188 182 176 172 172 173 173 167 160 161 161 158 160 164 163 161 160 156 148 147 144 141 138 144 150 150 151 147 142 141 138 134
313 318 323 322 311 301 263 193 185 195 193 179 171 169 170 170 166 161 157 155 151 150 151 151 153 157 158 159 157 154 154 152 147 148 148 152 151 149 148 142 143 145 137
317 317 321 317 314 305 246 219 214 201 173 164 164 165 162 158 156 152 152 151 150 150 149 146 144 145 151 155 159 158 153 149 147 152 150 149 148 144 141 136 134 131 125
307 304 303 309 314 312 275 244 238 167 161 161 162 160 154 155 156 155 154 152 154 155 155 154 153 149 146 151 155 154 150 146 139 143 145 143 142 137 132 131 133 129 123
299 296 297 299 301 311 301 249 215 172 161 164 162 157 155 155 156 154 157 159 162 160 159 159 157 152 150 151 151 149 142 137 130 129 135 134 130 121 124 127 123 116 129
291 281 276 279 282 292 296 258 200 170 166 163 162 160 157 155 154 152 159 162 169 170 167 167 162 162 166 169 159 152 149 146 139 132 123 123 127 124 120 115 114 114 118
287 280 274 271 273 277 276 256 203 174 170 167 164 162 157 153 151 144 125 116 143 152 156 156 154 157 155 153 154 151 148 146 144 135 142 146 147 148 149 145 138 131 134
Height
1413 1418 1421 1425 1430 1434 1439 1443 1447 1452 1457 1462 1467 1471 1476 1481 1485 1490 1495 1499 1503 1507 1510 1514 1517 1520 1523 1525 1528 1531 1533 1535 1536 1538 1539 1539 1539 1539 1540 1540 1540 1540 1540
1408 1412 1416 1419 1423 1428 1433 1437 1441 1446 1451 1456 1462 1467 1472 1477 1482 1487 1491 1495 1499 1503 1507 1511 1514 1517 1520 1523 1526 1528 1530 1533 1535 1536 1537 1537 1538 1537 1538 1538 1538 1538 1538
1402 1405 1409 1413 1417 1421 1425 1430 1435 1440 1445 1451 1458 1464 1469 1474 1478 1482 1486 1490 1495 1499 1503 1507 1511 1514 1517 1520 1523 1525 1528 1530 1532 1534 1536 1536 1535 1535 1536 1535 1536 1536 1535
1396 1399 1402 1406 1410 1414 1419 1424 1429 1434 1440 1446 1451 1456 1460 1465 1469 1474 1480 1486 1491 1495 1500 1504 1507 1511 1514 1517 1520 1523 1525 1527 1529 1531 1533 1534 1534 1534 1533 1534 1534 1533 1533
1389 1393 1396 1399 1404 1408 1413 1418 1423 1428 1434 1439 1444 1450 1455 1460 1466 1471 1477 1482 1486 1491 1495 1499 1503 1507 1510 1513 1517 1519 1522 1524 1526 1528 1529 1531 1532 1532 1532 1531 1531 1531 1530
1384 1387 1390 1393 1397 1402 1406 1411 1416 1421 1427 1432 1438 1443 1449 1454 1460 1465 1471 1476 1481 1485 1490 1494 1498 1502 1506 1509 1513 1516 1519 1521 1523 1525 1526 1528 1529 1529 1529 1529 1528 1527 1527
1379 1381 1384 1387 1390 1395 1399 1404 1409 1414 1419 1425 1430 1436 1442 1448 1453 1459 1465 1470 1474 1479 1483 1488 1492 1497 1501 1505 1509 1512 1514 1517 1519 1521 1523 1524 1525 1526 1527 1526 1525 1524 1523
1374 1376 1378 1381 1384 1387 1391 1396 1401 1406 1412 1418 1423 1429 1436 1442 1447 1453 1458 1463 1468 1473 1478 1483 1487 1492 1496 1500 1504 1507 1510 1513 1515 1517 1519 1520 1521 1522 1523 1523 1523 1521 1520
1370 1371 1373 1375 1377 1380 1384 1388 1393 1398 1404 1410 1416 1422 1428 1434 1440 1446 1452 1458 1463 1468 1473 1478 1482 1487 1491 1495 1499 1502 1505 1508 1510 1513 1515 1516 1517 1518 1519 1519 1519 1519 1517
1367 1367 1367 1369 1371 1373 1376 1381 1386 1391 1396 1403 1409 1415 1421 1427 1433 1440 1445 1451 1456 1462 1467 1472 1477 1481 1485 1489 1493 1496 1500 1503 1505 1508 1510 1511 1513 1514 1514 1515 1515 1514 1514
1363 1362 1362 1363 1365 1367 1370 1374 1378 1384 1389 1395 1401 1408 1414 1420 1427 1433 1439 1445 1450 1456 1461 1466 1471 1475 1479 1483 1487 1491 1494 1497 1500 1502 1504 1506 1508 1509 1510 1510 1510 1510 1509
1360 1359 1358 1358 1359 1361 1363 1367 1371 1376 1382 1388 1394 1401 1407 1414 1420 1426 1432 1438 1444 1449 1455 1460 1464 1469 1473 1477 1481 1485 1488 1492 1494 1497 1499 1501 1503 1504 1505 1505 1505 1505 1504
1358 1356 1354 1354 1354 1355 1358 1361 1365 1369 1375 1381 1388 1394 1400 1406 1413 1419 1425 1432 1438 1443 1449 1454 1458 1463 1467 1472 1476 1480 1483 1486 1489 1492 1494 1496 1498 1499 1500 1500 1501 1500 1500
1357 1354 1351 1350 1350 1351 1353 1356 1359 1364 1369 1375 1381 1387 1393 1400 1406 1413 1419 1425 1431 1437 1442 1448 1453 1457 1462 1466 1471 1474 1478 1481 1484 1487 1489 1491 1493 1494 1495 1496 1496 1496 1495
1355 1352 1349 1348 1347 1347 1349 1351 1355 1360 1364 1369 1375 1380 1387 1394 1400 1407 1413 1419 1425 1431 1437 1442 1447 1452 1457 1461 1465 1469 1473 1476 1479 1482 1484 1486 1488 1490 1491 1491 1491 1491 1491
1355 1351 1348 1346 1345 1344 1345 1348 1351 1355 1359 1364 1369 1375 1381 1388 1394 1401 1407 1414 1420 1425 1431 1436 1442 1447 1451 1456 1460 1464 1468 1471 1474 1477 1480 1482 1484 1485 1486 1487 1487 1488 1487
1354 1350 1347 1345 1343 1342 1342 1344 1347 1351 1355 1359 1364 1370 1376 1382 1388 1395 1402 1408 1414 1420 1425 1431 1437 1441 1446 1451 1455 1460 1463 1467 1470 1472 1475 1477 1479 1481 1482 1483 1483 1483 1483
1352 1348 1345 1343 1341 1340 1340 1341 1344 1347 1351 1355 1360 1365 1371 1377 1383 1390 1396 1402 1408 1414 1420 1426 1431 1437 1442 1446 1451 1455 1459 1462 1465 1468 1471 1473 1475 1477 1478 1479 1479 1480 1480
1350 1347 1344 1342 1340 1338 1338 1338 1341 1344 1347 1351 1356 1361 1366 1372 1378 1384 1390 1397 1403 1409 1415 1421 1427 1432 1437 1442 1446 1451 1455 1458 1461 1464 1467 1469 1471 1473 1474 1475 1476 1476 1476
1347 1344 1342 1339 1338 1337 1336 1337 1338 1341 1344 1348 1353 1358 1363 1368 1374 1380 1386 1392 1399 1405 1411 1417 1422 1428 1433 1438 1442 1447 1450 1454 1457 1460 1463 1465 1467 1469 1470 1472 1472 1473 1473
1345 1342 1340 1338 1336 1335 1335 1335 1336 1338 1342 1346 1350 1355 1360 1365 1370 1376 1382 1388 1395 1401 1407 1413 1418 1424 1429 1434 1438 1443 1446 1450 1453 1456 1459 1461 1463 1465 1467 1468 1469 1470 1470
1342 1340 1338 1336 1335 1334 1334 1334 1335 1336 1340 1343 1347 1352 1357 1362 1367 1373 1379 1385 1391 1397 1403 1409 1414 1420 1425 1430 1434 1439 1443 1447 1450 1453 1456 1458 1461 1463 1464 1465 1466 1467 1467
1339 1338 1336 1334 1333 1333 1333 1332 1333 1335 1337 1341 1345 1349 1354 1359 1364 1370 1375 1381 1387 1393 1398 1404 1409 1415 1421 1426 1431 1435 1440 1443 1447 1450 1453 1455 1458 1460 1461 1463 1464 1464 1465
1337 1335 1334 1332 1331 1331 1331 1331 1332 1333 1336 1338 1342 1346 1351 1356 1361 1367 1372 1377 1383 1388 1394 1399 1405 1411 1416 1421 1426 1431 1435 1440 1443 1447 1450 1452 1455 1457 1458 1460 1461 1462 1462
1334 1333 1331 1329 1328 1328 1328 1329 1330 1332 1334 1336 1339 1344 1348 1353 1358 1363 1369 1374 1380 1384 1390 1395 1400 1405 1411 1416 1422 1426 1431 1435 1439 1443 1446 1449 1451 1453 1455 1457 1458 1459 1460
1330 1328 1327 1326 1326 1325 1325 1326 1327 1329 1331 1334 1337 1341 1345 1350 1355 1360 1366 1373 1378 1384 1390 1395 1399 1405 1410 1415 1419 1424 1429 1433 1437 1440 1443 1446 1448 1450 1452 1454 1455 1457 1457